Location: Bucquoy
(50.1391°N, 2.7097°E)
Time: 03:46:11
(UTC+00:00)

Meteor 1-13 Rocket - Pass Details

Date: 06 May 2021
Orbit: 830 x 912 km, 81.3° (Epoch: 22 June)

Event Time Altitude Azimuth Distance (km) Brightness Sun altitude
Exits shadow 01:09:01 40° 221° (SW) 1,225 4.6 -20.8°
Maximum altitude 01:10:55 64° 285° (WNW) 937 4.3 -20.7°
Drops below altitude 10° 01:16:26 10° 7° (N) 2,459 7.7 -20.4°
Sets 01:18:52 0° 11° (N) 3,392 8.8 -20.2°
